This demonstration page uses our WeatherBlox Daily Observations layout. Learn more.

Left ArrowRight Arrow

44.8408, -93.29828

Hourly Observations for September 21, 2016

Temp ( °F °C ) Dew Point ( °F °C ) Humidity (%) Winds ( mph kmh ) Pressure ( in mb ) Visibility ( mi km ) Precip ( " mm )
12:24 am 00:24 Partly Cloudy 66 19 61 16 83 83 E 12 19 29.97 1015 10 16 0.00 0.00
12:53 am 00:53 Mostly Cloudy 66 18.9 61 16.1 84 84 SE 3 6 29.99 1016 10 16 0.00 0.03
1:53 am 01:53 Mostly Cloudy 66 18.9 61 16.1 84 84 E 5 7 29.98 1015 10 16 0.00 0.00
2:53 am 02:53 Mostly Cloudy 66 18.9 61 16.1 84 84 ENE 7 11 29.98 1015 10 16 0.00 0.00
3:51 am 03:51 Mostly Cloudy 66 19 61 16 83 83 ENE 7 11 29.97 1015 10 16 0.00 0.00
3:53 am 03:53 Mostly Cloudy 66 18.9 61 16.1 84 84 ENE 7 11 29.99 1016 10 16 0.00 0.00
4:53 am 04:53 Cloudy 66 18.9 61 16.1 84 84 E 6 9 29.99 1016 10 16 0.00 0.00
5:53 am 05:53 Cloudy 65 18.3 61 16.1 87 87 ENE 7 11 30.00 1016 10 16 0.00 0.00
6:53 am 06:53 Mostly Cloudy 65 18.3 60 15.6 84 84 ENE 8 13 29.99 1016 10 16 0.00 0.00
7:04 am 07:04 Mostly Cloudy 65 18.3 60 15.6 84 84 ENE 6 9 29.97 1015 10 16 0.00 0.00
7:53 am 07:53 Cloudy 66 18.9 60 15.6 81 81 ENE 9 15 30.01 1016 10 16 0.00 0.00
8:53 am 08:53 Cloudy 65 18.3 60 15.6 84 84 ENE 12 19 30.03 1017 10 16 0.00 0.00
9:20 am 09:20 Cloudy 64 18 61 16 88 88 ENE 12 19 30.00 1016 10 16 0.00 0.00
9:53 am 09:53 Cloudy 66 18.9 60 15.6 81 81 ENE 12 19 30.03 1017 10 16 0.00 0.00
10:53 am 10:53 Cloudy 65 18.3 61 16.1 87 87 ENE 12 19 30.03 1017 10 16 0.00 0.03
11:22 am 11:22 Cloudy 65 18.3 62 16.7 90 90 ENE 14 22 30.00 1016 10 16 0.00 0.00
11:53 am 11:53 Cloudy 66 18.9 62 16.7 87 87 ENE 10 17 30.03 1017 10 16 0.00 0.00
12:53 pm 12:53 Cloudy 67 19.4 62 16.7 84 84 E 12 19 30.02 1017 10 16 0.00 0.00
1:53 pm 13:53 Cloudy 70 21.1 63 17.2 79 79 ENE 15 24 30.00 1016 10 16 0.00 0.00
2:03 pm 14:03 Cloudy 70 21 63 17 78 78 E 13 20 29.97 1015 10 16 0.00 0.00
2:23 pm 14:23 Cloudy with Nearby Thunderstorms 70 21.1 63 17.2 79 79 E 12 19 29.97 1015 10 16 0.00 0.00
2:53 pm 14:53 Cloudy 70 21.1 63 17.2 79 79 E 12 19 29.98 1015 10 16 0.00 0.00
3:24 pm 15:24 Cloudy 70 21.1 64 17.8 82 82 E 13 20 29.94 1014 10 16 0.00 0.00
3:53 pm 15:53 Cloudy 71 21.7 64 17.8 79 79 E 13 20 29.96 1015 10 16 0.00 0.00
3:59 pm 15:59 Cloudy with Nearby Thunderstorms 70 21.1 64 17.8 82 82 E 13 20 29.94 1014 10 16 0.00 0.00
4:29 pm 16:29 Cloudy 70 21.1 63 17.2 79 79 NE 12 19 29.94 1014 10 16 0.00 0.00
4:53 pm 16:53 Cloudy 70 21.1 63 17.2 79 79 E 14 22 29.94 1014 10 16 0.00 0.00
5:38 pm 17:38 Cloudy 70 21 63 17 78 78 NNW 16 26 29.97 1015 10 16 0.00 0.00
5:42 pm 17:42 Cloudy with Nearby Thunderstorms 70 21 63 17 78 78 N 17 28 29.97 1015 10 16 0.00 0.00
5:46 pm 17:46 Cloudy with Nearby Thunderstorms 68 20 63 17 83 83 N 15 24 29.94 1014 10 16 0.00 0.00
5:53 pm 17:53 Cloudy with Nearby Thunderstorms 68 20 62 16.7 81 81 NNE 16 26 29.96 1015 10 16 0.00 0.00
5:57 pm 17:57 Cloudy 68 20 62 16.7 81 81 NNE 12 19 29.94 1014 10 16 0.00 0.00
6:53 pm 18:53 Cloudy 68 20 62 16.7 81 81 E 17 28 29.93 1013 10 16 0.00 0.00
7:11 pm 19:11 Cloudy 69 20.6 62 16.7 78 78 ENE 15 24 29.94 1014 10 16 0.00 0.00
7:17 pm 19:17 Cloudy with Nearby Thunderstorms 69 20.6 62 16.7 78 78 ENE 18 30 29.94 1014 10 16 0.00 0.00
7:32 pm 19:32 Cloudy 70 21 63 17 78 78 E 17 28 29.94 1014 10 16 0.00 0.00
7:51 pm 19:51 Cloudy with Nearby Thunderstorms 70 21 63 17 78 78 E 20 31 29.94 1014 10 16 0.00 0.00
7:53 pm 19:53 Cloudy with Nearby Thunderstorms 70 21.1 62 16.7 76 76 E 22 35 29.93 1014 10 16 0.00 0.00
8:19 pm 20:19 Cloudy with Thunderstorms 72 22.2 63 17.2 73 73 E 24 39 29.88 1012 10 16 0.00 0.00
8:26 pm 20:26 Cloudy with Thunderstorms 72 22 63 17 73 73 N 16 26 29.94 1014 10 16 0.00 0.00
8:35 pm 20:35 Windy with Storms Likely 70 21.1 63 17.2 79 79 N 30 48 29.97 1015 2 3 0.00 0.03
8:37 pm 20:37 Cloudy with Thunderstorms 68 20 64 17.8 87 87 NNE 36 57 29.97 1015 1 2 0.06 1.52
8:39 pm 20:39 Cloudy with Strong Thunderstorms 67 19.4 64 17.8 91 91 NE 29 46 29.94 1014 1 1 0.25 6.35
8:46 pm 20:46 Cloudy with Strong Thunderstorms 66 19 64 18 94 94 E 21 33 29.97 1015 1 2 0.00 0.00
8:53 pm 20:53 Cloudy with Strong Thunderstorms 66 18.9 63 17.2 90 90 E 17 28 29.98 1015 4 6 0.60 15.24
9:00 pm 21:00 Cloudy with Strong Thunderstorms 66 19 64 18 94 94 VRB 6 9 29.97 1015 2 3 0.00 0.00
9:11 pm 21:11 Cloudy with Strong Thunderstorms 67 19.4 64 17.8 91 91 SE 13 20 29.94 1014 3 5 0.51 12.95
9:16 pm 21:16 Cloudy with Strong Thunderstorms 66 19 64 18 94 94 SE 8 13 29.94 1014 4 6 0.00 0.00
9:53 pm 21:53 Cloudy with Nearby Thunderstorms 66 18.9 63 17.2 90 90 ESE 23 37 29.95 1014 8 13 0.74 18.80
10:06 pm 22:06 Cloudy 66 19 64 18 94 94 ESE 21 33 29.94 1014 10 16 0.00 0.00
10:14 pm 22:14 Cloudy with Nearby Thunderstorms 67 19.4 64 17.8 91 91 SE 18 30 29.94 1014 10 16 0.00 0.03
10:53 pm 22:53 Cloudy with Thunderstorms 68 20 64 17.8 87 87 SE 10 17 29.96 1015 8 13 0.03 0.76
11:13 pm 23:13 Cloudy with Rain 67 19.4 64 17.8 91 91 ESE 14 22 29.94 1014 8 13 0.03 0.76
11:53 pm 23:53 Cloudy 67 19.4 64 17.8 91 91 ENE 12 19 29.98 1015 10 16 0.04 1.02

Powered by AerisWeather